Tracking 19827 objects as of 21-Aug-2019
HD Live streaming from Space Station
objects crossing your sky now

FENGYUN 1C DEB

Track FENGYUN 1C DEB now!
10-day predictions


NORAD ID: 31027
Int'l Code: 1999-025BDV
Perigee: 786.7 km
Apogee: 900.6 km
Inclination: 99.0 °
Period: 101.6 minutes
Semi major axis: 7214 km
RCS: 0.0123 m2 (small)
Launch date: May 10, 1999
Source: People's Republic of China (PRC)
Launch site: Taiyaun Space Center, China (TSC)

Note: This is SATELLITE DEBRIS
aabbcc
Your satellite tracking list
Your tracking list is empty




NASA's NSSDC Master Catalog

Two Line Element Set (TLE):
1 31027U 99025BDV 17049.38198583 +.00000406 +00000-0 +21962-3 0  9997
2 31027 099.0183 109.1279 0078961 217.7757 141.6964 14.16710760510506
Source of the keplerian elements: AFSPC